Regional Weather Roundup
Issued by NWS Upton, NY

Current Version | Previous Version | Graphics & Text | Print | Product List | Glossary Off
Versions: 1 2 3 4 5 6 7 8 9 10 11 12 13 14 15 16 17 18 19 20 21 22 23 24 25 26 27

000
ASUS41 KOKX 251709
RWROKX

REGIONAL WEATHER ROUNDUP
NATIONAL WEATHER SERVICE NEW YORK NY
100 PM EDT TUE JUL 25 2017

NOTE: "FAIR" INDICATES FEW OR NO CLOUDS BELOW 12,000 FEET WITH NO
SIGNIFICANT WEATHER AND/OR OBSTRUCTIONS TO VISIBILITY.

NYZ071-072-176-178-NJZ106-104-251800-
NEW YORK CITY METRO AREA

CITY           SKY/WX    TMP DP  RH WIND       PRES   REMARKS
Central Park   CLOUDY    66  59  78 VRB7      30.14R
Bronx Bot Gard   N/A     66  57  72 W1        30.13R
LaGuardia APRT CLOUDY    66  60  81 NE12      30.11R
Kennedy INTL   CLOUDY    69  62  78 NE9       30.11R
Breezy Point     N/A     66 N/A N/A NE6         N/A
Newark/Liberty CLOUDY    68  60  75 NE6       30.10S
Teterboro      CLOUDY    66  59  78 E5        30.10R
$$

NYZ177-179-078>081-251800-
LONG ISLAND NEW YORK

CITY           SKY/WX    TMP DP  RH WIND       PRES   REMARKS
Jones Beach      N/A     66 N/A N/A NE7         N/A
Matinecock PT    N/A     63 N/A N/A E13         N/A
Farmingdale    CLOUDY    67  59  75 N6        30.11R
MacArthur/ISP  CLOUDY    66  59  78 NE8       30.10S
Shirley        CLOUDY    66  60  81 VRB3      30.11S
Mt Sinai Harb    N/A    N/A N/A N/A NE5         N/A
Westhampton    CLOUDY    65  57  75 NE7       30.12S
East Hampton   CLOUDY    63  57  82 NE6       30.11R
Montauk          N/A     65  58  78 NE8       30.12S
$$

NYZ052-065-067-251800-
HUDSON VALLEY

CITY           SKY/WX    TMP DP  RH WIND       PRES   REMARKS
White Plains   PTSUNNY   64  57  78 CALM      30.12R
Larchmont Harb   N/A     63 N/A N/A NE10        N/A
Croton O-T Hud   N/A     64 N/A N/A CALM        N/A
Newburgh       CLOUDY    63  61  94 CALM      30.13R
Montgomery     CLOUDY    64  59  83 CALM      30.12R
Poughkeepsie   CLOUDY    65  57  75 SE3       30.11R
Albany         DRIZZLE   61  57  87 N5        30.14R
$$

NJZ001-105-106-008-010-013-015-019>022-104-251800-
NEW JERSEY

CITY           SKY/WX    TMP DP  RH WIND       PRES   REMARKS
Newark/Liberty CLOUDY    68  60  75 NE6       30.10S
Teterboro      CLOUDY    66  59  78 E5        30.10R
Caldwell       CLOUDY    66  61  84 SE5       30.11R
Somerville     CLOUDY    73  64  73 CALM      30.08S
Linden         CLOUDY    69  59  71 CALM      30.11R
Perth Amboy      N/A     68 N/A N/A S3          N/A
Sussex         CLOUDY    66  62  87 N3        30.12R
Andover          N/A     69  61  75 NE5       30.11R
Trenton        CLOUDY    72  64  76 CALM      30.09S
Millville      MOSUNNY   77  67  71 NE8       30.08R
Atlantic City  LGT RAIN  71  68  90 E12       30.08R
Wrightstown    MOSUNNY   73  65  76 N3        30.07S
Toms River     CLOUDY    70  64  81 NE9       30.10R
Belmar         CLOUDY    67  62  84 VRB5      30.12R
$$

PAZ047>061-062-071-251800-
EASTERN PENNSYLVANIA

CITY           SKY/WX    TMP DP  RH WIND       PRES   REMARKS
Philadelphia   PTSUNNY   77  63  61 E7        30.09R
Allentown      CLOUDY    74  63  68 NE7       30.09R
Scranton       CLOUDY    68  61  78 S3        30.11S
$$

CTZ002-004>006-009-010-012-RIZ004-006-007-MAZ004-011-015-251800-
SOUTHERN NEW ENGLAND
 IN CT

CITY           SKY/WX    TMP DP  RH WIND       PRES   REMARKS
Bradley INTL   CLOUDY    64  56  75 VRB5      30.14R
Hartford       CLOUDY   N/A N/A N/A N6        30.13R
Danbury        CLOUDY    62  57  83 NE3       30.14R
Wtrbury/Oxford CLOUDY    61  54  77 NE5       30.14S
Bridgeport     LGT RAIN  66  57  72 E6        30.11S
Meriden        CLOUDY    64  56  75 N6        30.13R
New Haven      CLOUDY    66  56  70 NE8       30.12R
Chester        CLOUDY    63  57  82 NE5       30.12S
Groton         CLOUDY    65  57  75 NE9       30.10S
Wilimantic     CLOUDY    64  57  78 NE8       30.13S

 IN RI

CITY           SKY/WX    TMP DP  RH WIND       PRES   REMARKS
Providence     CLOUDY    62  59  90 NE8       30.13R
Block Island   CLOUDY    62  58  86 N8        30.11S
Westerly       CLOUDY    65  57  75 N6        30.12R
 IN MA

CITY           SKY/WX    TMP DP  RH WIND       PRES   REMARKS
Boston         CLOUDY    62  56  80 NE6       30.13R
Worcester      LGT RAIN  56  54  93 VRB5      30.15R
Westfield      CLOUDY    62  57  83 NE5       30.14R
Provincetown   CLOUDY    60  56  86 NE7       30.11S
Nantucket      CLOUDY    64  58  80 N21       30.07F
$$

ANZ330-335-338-340-345-350-353-355-251800-
COASTAL MARINE OBSERVATIONS


STATION/POSITION TIME  SKY/WX   TEMP    WIND        PRES    VSBY  WAVE
                                AIR SEA DIR/SP/G                  HT/PER
                 (UTC)          (F)     (DEG/KT/KT) (MB)    (MI)  (FT/S)
NY HARB ENTRANCE 1550            66 70   60/ 10/ 14 1018.4          3/ 7
20 S FIRE ISLAND 1650            67 73   60/ 12/ 14 1018.3          4/ 7
GREAT SOUTH BAY  1630            65 76   40/  8/ 10   N/A
23 SSW MONTAUK P 1550            64 72              1019.3          4/ 8
15 E BARNEGAT LI 1600               71                N/A           4/ 6
HUDSON CANYON    1550            69 74   70/ 14/ 17 1016.8          5/ 6
KINGS POINT      1630            65 71  100/  5/  8 1019.3
EXECUTION ROCKS  1645            65      80/ 12/ 14   N/A
CENTRAL LI SOUND NOT AVBL
EASTERN LI SOUND NOT AVBL
ROBBINS REEF     1630                    70/  6/  8 1019.8
$$


>>>>>>>>>>>>>>>>>>>>>>>>>>>> KEY <<<<<<<<<<<<<<<<<<<<<<<<<<<
>                                                          <
>     SKY/WX - Sky Condition/Present Weather               <
>     TMP    - Temperature in Fahrenheit                   <
>     DP     - Dew Point in Fahrenheit                     <
>     RH     - Relative Humidity in Percent                <
>     WIND   - Direction (from) and Speed in MPH           <
>     PRES   - Mean Sea Level Pressure (inches of Hg)      <
>     WCI    - Wind Chill Index                            <
>     VSB    - VISIBILITY IN MILES                         <
>     HX     - HEAT INDEX                                  <
>     TC     - TEMPERATURE IN CELSIUS                      <
>     VRB    - VARIABLE WIND DIRECTION                     <
>                                                          <
>>>>>>>>>>>>>>>>>>>>>>>>>>>> KEY <<<<<<<<<<<<<<<<<<<<<<<<<<<




USA.gov is the U.S. government's official web portal to all federal, state and local government web resources and services.